User: anonymous   Login
Location: Unspecified
(0.0000°N, 0.0000°E)
Time: 19:13:58
(UTC+00:00)
Language:

TBA - TO BE ASSIGNED - Orbit

View from above orbital plane
View from above orbital plane
View from above satellite
View from above satellite

Ground track
Ground track

The orbit is defined by the following mean orbital elements,

1 67502U          26145.58792575 +.00000000 +00000-0 +64332-3 0 00000
2 67502  43.0017 240.0144 0002899 261.6750  98.3773 15.27596093    01
Epoch (UTC): 25 May 2026 14:06:36
Eccentricity: 0.0002899
inclination: 43.0017°
perigee height: 481 km
apogee height: 485 km
right ascension of ascending node: 240.0144°
argument of perigee: 261.6750°
revolutions per day: 15.27596093
mean anomaly at epoch: 98.3773°

The dashed part of the orbit path shows where the satellite is in the earth's shadow,  

DLR